www.pogodaiklimat.ru

АРХИВ ПОГОДЫ в Кернее

Время (UTC), дата Ветер
(напр.,м/с)
 
Видим.   Явления Облачность Т
(С)
Тd
(С)
f
(%)
Тe
(С)
Тes
(С)
Комфортность

P
(гПа)

Po
(гПа)
Тmin
(С)
Tmax
(С)
R
(мм)
SD
(см)
05:57 19.04 СЗ  16 км    ясно  +2.2  0.0  85  -3  -3    1020.1  943.6         
06:57 19.04 СЗ  16 км    ясно  +2.2  +0.6  89  -3  -3    1019.9  943.3         
07:57 19.04 СЗ  16 км    ясно  +1.7  0.0  88  -3  -3    1020.0  943.3         
08:57 19.04 СЗ  16 км    ясно  +1.7  0.0  88  -3  -3    1020.6  944.0         
09:57 19.04 СЗ  16 км    ясно  +0.6  -1.1  88  -5  -5    1021.4  944.6         
10:57 19.04 СЗ  16 км    ясно  0.0  -1.1  92  -5  -5    1021.6  944.6  0.0  +3.9     
11:57 19.04 СЗ  16 км    ясно  +2.2  +0.6  89  -3  -3    1021.9  944.9         
12:57 19.04 СЗ  16 км    ясно  +5.6  +2.2  79  +2  +3    1022.5  945.5         
13:57 19.04 СВ  16 км    ясно  +9.4  +2.8  63  +7  +10    1022.0  945.2         
14:57 19.04 С  16 км    ясно  +11.1  +1.7  52  +10  +15    1021.8  944.9         
16:57 19.04 СЗ  16 км    ясно  +13.9  0.0  38  +13  +25  опасность
простуды 
1019.9  943.3  0.0  +13.9     
18:57 19.04 нст  16 км    ясно  +16.7  +0.6  34  +17  +35  опасность
простуды 
1018.0  941.8         
19:57 19.04 ЮЗ  16 км    ясно  +18.3  +1.1  31  +18  +28    1017.1  940.8         
20:57 19.04 З  4
{7} 
16 км    ясно  +18.3  +0.6  30  +18  +26    1016.0  939.9         
21:57 19.04 СЗ  16 км    ясно  +18.9  +0.6  29  +19  +27    1015.4  939.6         
22:57 19.04 Ю  16 км    ясно  +18.9  +1.1  30  +19  +21    1015.1  938.9  +13.9  +19.4     
23:57 19.04 Ю  16 км    ясно  +16.7  +2.8  39  +16  +17    1014.4  938.3         
00:57 20.04 Ю  16 км    ясно  +12.8  +2.8  51  +11  +11    1014.1  938.0         
01:57 20.04 Ю  16 км    ясно  +11.7  +2.8  54  +10  +10    1014.0  938.3         
02:57 20.04 Ю  16 км    ясно  +10.6  +2.2  56  +8  +8    1013.9  938.3         
03:57 20.04 Ю  16 км    ясно  +10.6  +2.2  56  +8  +8    1013.5  938.0         
04:57 20.04 Ю  16 км    ясно  +10.0  +2.2  58  +7  +7    1013.1  937.7  +8.9  +18.9     
05:57 20.04 Ю  16 км    ясно  +9.4  +1.7  59  +6  +6    1013.2  937.7         
06:57 20.04 ЮЗ  16 км    ясно  +9.4  +1.1  56  +5  +5    1012.3  937.1         
07:57 20.04 Ю  16 км    ясно  +8.3  +1.1  60  +5  +5    1012.0  936.7         
08:57 20.04 Ю  16 км    ясно  +5.6  +1.1  73  +2  +2    1011.7  936.4         
09:57 20.04 Ю  16 км    ясно  +6.7  +1.7  70  +3  +3    1010.8  935.5         
10:57 20.04 ЮЗ  16 км    ясно  +6.1  +1.7  73  +3  +3    1010.4  935.2  +5.6  +10.0     
11:57 20.04 ЮЗ  16 км    ясно  +8.3  +2.2  65  +6  +6    1010.6  935.5         
12:57 20.04 ЮЗ  16 км    ясно  +11.7  +3.3  56  +10  +10    1010.3  935.2         
13:57 20.04 ЮЗ  16 км    ясно  +15.6  +4.4  47  +15  +16    1009.7  934.9         
14:57 20.04 З  16 км    ясно  +20.0  +5.6  39  +21  +25  комфорт  1009.5  934.9         
15:57 20.04 ЮЗ  16 км    ясно  +24.4  +5.0  29  +24  +31  комфорт  1008.7  934.2         
16:57 20.04 ЮЗ  16 км    ясно  +27.2  +4.4  23  +26  +31  жарко  1007.3  933.3  +6.1  +27.2     
17:57 20.04 ЮЗ  8
{11} 
16 км    ясно  +28.9  +3.3  19  +27  +29  жарко  1006.2  932.4         
18:57 20.04 ЮЗ  6
{11} 
16 км    ясно  +29.4  +3.3  19  +27  +33  жарко  1005.5  931.7         
19:57 20.04 Ю  7
{11} 
16 км    ясно  +29.4  +5.6  22  +28  +30  жарко  1004.6  930.8         
20:57 20.04 Ю  16 км    ясно  +28.9  +5.0  22  +27  +29  жарко  1003.6  929.5         
21:57 20.04 Ю  10
{11} 
16 км    ясно  +30.0  +4.4  20  +28  +28  жарко  1002.9  929.2         
22:57 20.04 Ю  16 км    ясно  +28.9  +4.4  21  +27  +28  жарко  1002.7  928.9  +27.2  +30.6     
23:57 20.04 Ю  16 км    ясно  +26.1  +5.6  27  +25  +26  комфорт  1002.8  928.9         
00:57 21.04 Ю  16 км    ясно  +23.3  +5.0  30  +23  +23  комфорт  1002.8  928.9         
01:57 21.04 Ю  10
{13} 
16 км    ясно  +21.7  +6.1  36  +22  +22  комфорт  1003.2  929.5         
02:57 21.04 Ю  16 км  слабый дождь  ясно  +21.1  +8.9  46  +22  +22  комфорт  1003.2  929.5         
03:57 21.04 Ю  10
{13} 
16 км  слабый дождь  ясно  +20.0  +8.9  49  +20  +20    1002.7  929.5         
04:57 21.04 Ю  10
{13} 
16 км    ясно  +18.9  +8.9  52  +18  +18    1002.7  929.5  +18.9  +28.9     
05:57 21.04 Ю  10
{13} 
16 км    ясно  +18.3  +8.9  54  +17  +17    1002.5  929.5         
06:57 21.04 Ю  16 км    ясно  +17.2  +8.9  58  +16  +16    1002.4  929.2         

 

Местоположение метеостанции Kearney Municipal Airport: широта 40.7333 долгота -99.0000 высота над уровнем моря 650 м.

В архиве по умолчанию представлена погода в Кернее за последние 1-2 суток. Обновление информации о фактической погоде в базе происходит ежечасно! Архивные данные за месяц целиком и за предыдущие месяцы Вы можете получить, выбрав интересующий диапазон дат из раскрывающегося списка и нажав кнопку "Ввод!".

Внимание! Архив погоды МЕТАР в базе сайта в настоящее время начинается c 1 января 2011 г. Нет смысла пытаться выбрать более раннюю дату.

Внимание! Время в таблицах - всемирное. Для получения местного времени необходимо прибавить поправку, которая в Кернее равна -6 ч.

Ветер - указаны скорость ветра в м/с и направление, откуда дует ветер: С - северный, СВ - северо-восточный, В - восточный, ЮВ - юго-восточный, Ю - южный, ЮЗ - юго-западный, З - западный, СЗ - северо-западный.
Видимость - горизонтальная дальность видимости в метрах или километрах. При видимости от 1 до 10 км при отсутствии осадков обычно наблюдается дымка, при ухудшении видимости до 1 км и менее - туман. В сухую погоду видимость может ухудшаться дымом, пылью или мглою.
Атмосферные явления - указаны явления, наблюдавшиеся в указанный момент времени.
Облачность - указаны через наклонную черту верхняя и нижняя облачность в баллах и высота нижней границы облаков в метрах. Внимание: облачность, как и прочие метеорологические величины в США измеряются автоматическими метеостанциями. Указанные значения в баллах носят условный характер и показывают процент времени, в течение которого, в среднем, лазерный луч высотомера отражался от облаков обратно.
T - Температура воздуха - температура, измеренная на высоте 2 м над землей.
Td - Температура точки росы - температура, при понижении до которой содержащийся в воздухе водяной пар достигнет насыщения.
f - Относительная влажность воздуха - влажноcть воздуха, измеренная на высоте 2 м над землей.
Te - Эффективная температура - температура, которую ощущает одетый по сезону человек в тени. Характеристика душности погоды. При расчете учитывается влияние влажности воздуха и скорости ветра на теплоощущения человека.
Tes - Эффективная температура на солнце - температура, которую ощущает человек, с поправкой на солнечный нагрев. Характеристика знойности погоды. Зависит от высоты солнца над горизонтом, облачности и скорости ветра. Ночью, в пасмурную погоду, а также при ветре 12 м/с и более поправка равна нулю.
P - Атмосферное давление - приведенное к уровню моря атмосферное давление.
Po - Атмосферное давление - измеренное на уровне метеостанции атмосферное давление.
Tmin - Минимальная температура - минимум температуры воздуха на высоте 2 м над землей.
Tmax - Максимальная температура - максимум температуры воздуха на высоте 2 м над землей.
R - Количество осадков - Количество выпавших осадков за 3 или 6 часов, мм.
SD - Снежный покров - Высота снежного покрова, см.